Weather observations for the past three days for
Mankato, Mankato Regional Airport
Metric (Imperial)
Date Time (cdt) Wind (kph) Vis. (km) Weather Sky Cond. Temperature (ºC) Relative Humidity Wind Chill (°C) Heat Index (°C) Pressure Precipitation (cm)
Air Dwpt 6 hour altimeter (cm) sea level (mb) 1 hr 3 hr 6 hr
Max. Min.
21 11:56 Calm 1.61 Heavy Rain Fog/Mist BKN010 BKN015 OVC022 19.4 18.9 97% 76.58 1021.1 1.55
21 10:56 E 9 2.41 Heavy Rain Fog/Mist OVC009 19.4 18.9 97% 76.56 1020.6 0.2
21 09:56 SE 17 16.09 Overcast BKN009 OVC050 20 18.9 93% 76.53 1020.4 0.03
21 08:56 E 13 16.09 Partly Cloudy SCT005 19.4 18.9 97% 76.58 1020.9
21 07:56 E 13 16.09 Thunderstorm in Vicinity BKN005 OVC100 18.9 18.3 96% 76.61 1021.2 0.03
21 06:56 E 22 14.48 Light Rain SCT003 BKN013 OVC050 18.3 18.3 18.3 17.2 100% 76.56 1020.8 0.53 2.29
21 05:56 NE 13 11.27 Thunderstorm in Vicinity Rain BKN003 OVC015 17.8 17.8 100% 76.68 1022.3 0.41
21 04:56 N 15 8.05 Thunderstorm in Vicinity Rain Fog/Mist SCT003 BKN007 OVC026 17.8 17.8 100% 76.71 1022.8 0.58
21 03:56 NE 13 8.05 Light Rain Fog/Mist OVC003 18.3 18.3 100% 76.68 1022.2 0.3 0.76
21 02:56 E 11 6.44 Heavy Rain Fog/Mist BKN005 OVC009 18.3 18.3 100% 76.73 1023.0 0.36
21 01:56 E 13 11.27 Light Rain FEW026 BKN095 OVC120 18.3 17.8 97% 76.73 1023.0 0.1
21 00:56 E 13 16.09 Light Rain BKN023 BKN029 17.2 17.2 17.2 15.6 100% 76.81 1024.1 0.03 0.43
20 23:56 E 13 16.09 Light Rain BKN011 BKN027 16.7 16.1 96% 76.81 1024.1
20 22:56 E 13 16.09 Light Rain BKN120 16.7 15.6 93% 76.78 1023.7
20 21:56 NE 11 16.09 Mostly Cloudy FEW009 BKN030 BKN110 16.1 15.6 97% 76.86 1024.8 0.03 0.41
20 20:56 N 9 16.09 Light Rain BKN027 BKN046 16.1 15.6 97% 76.89 1025.2 0.08
20 19:56 E 15 9.66 Rain Fog/Mist FEW026 BKN045 OVC080 16.1 15 93% 76.89 1025.3 0.3
20 18:56 N 13 16.09 Light Rain SCT016 BKN036 OVC070 16.1 15.6 18.3 16.1 97% 76.96 1026.2 0.51 1.04
20 17:56 N 7 16.09 Rain FEW060 SCT075 OVC090 16.7 15.6 93% 76.94 1026.0 0.23
20 16:56 E 11 16.09 Light Rain FEW036 SCT047 OVC070 16.7 15.6 93% 76.86 1024.7 0.03
20 15:56 N 11 16.09 Light Rain FEW039 SCT049 BKN060 16.7 13.9 84% 76.99 1026.6 0.08 0.28
20 14:56 NE 13 16.09 Light Rain FEW035 BKN075 OVC090 17.2 13.9 81% 77.01 1026.8 0.05
20 13:56 N 7 16.09 Light Rain OVC070 17.2 15 87% 77.09 1028.0 0.15
20 12:56 NW 11 16.09 Light Rain OVC070 18.3 15 20 16.1 81% 77.11 1028.2
20 11:56 NE 9 16.09 Overcast OVC095 20 15 73% 77.04 1027.1
20 10:56 NE 9 16.09 Overcast FEW075 OVC110 19.4 13.9 71% 77.09 1027.5
20 09:56 NE 9 16.09 Fair CLR 19.4 14.4 73% 77.04 1027.0
20 08:56 E 11 16.09 Fair CLR 17.8 14.4 81% 77.04 1027.0
20 07:56 NE 9 16.09 Fair CLR 17.2 13.9 81% 77.06 1027.6
20 06:56 N 9 16.09 Fair CLR 16.7 13.9 17.8 15.6 84% 77.11 1028.1
20 05:56 NE 7 16.09 Fair CLR 16.1 13.3 84% 77.09 1027.7
20 04:56 E 13 16.09 Fair CLR 16.1 13.3 84% 77.04 1027.0
20 03:56 NE 9 16.09 Fair CLR 15.6 13.9 90% 77.06 1027.6
20 02:56 N 9 16.09 Fair CLR 16.1 15 93% 77.06 1027.5
20 01:56 N 6 16.09 Mostly Cloudy BKN120 17.2 14.4 84% 77.04 1027.2
20 00:56 Calm 16.09 Fair CLR 17.8 15 21.1 17.8 84% 77.01 1026.6
19 23:56 E 6 16.09 Fair CLR 17.8 14.4 81% 77.01 1026.8
19 22:56 E 6 16.09 Fair CLR 18.9 14.4 75% 77.01 1026.8
19 21:56 Calm 16.09 Fair CLR 19.4 15 76% 77.01 1026.7
19 20:56 Calm 16.09 Mostly Cloudy BKN120 20 13.9 68% 76.96 1026.1
19 19:56 N 6 16.09 Mostly Cloudy FEW037 BKN110 20.6 13.9 66% 76.96 1026.1
19 18:56 NE 13 16.09 A Few Clouds FEW037 21.1 13.3 21.7 18.3 61% 76.91 1025.4
19 17:56 N 17 16.09 Fair CLR 21.1 12.8 59% 76.91 1025.4
19 16:56 NE 15 16.09 Mostly Cloudy BKN035 21.1 12.8 59% 76.91 1025.5
19 15:56 N 15 16.09 Mostly Cloudy BKN032 20.6 12.8 61% 76.94 1025.6
19 14:56 N 11 16.09 Mostly Cloudy FEW030 BKN120 19.4 13.3 68% 76.94 1025.9
19 13:56 N 13 16.09 Partly Cloudy SCT028 SCT120 19.4 12.8 66% 76.96 1026.0
19 12:56 N 19 16.09 Overcast OVC028 18.9 12.8 18.9 15.6 68% 76.94 1025.7
19 11:56 NW 15 16.09 Partly Cloudy SCT024 17.8 12.8 73% 76.89 1025.2
19 10:56 NW 19 16.09 Partly Cloudy SCT024 17.8 12.8 73% 76.84 1024.3
19 09:56 NW 20 16.09 Partly Cloudy SCT022 17.8 12.8 73% 76.81 1024.1
19 08:56 NW 20 16.09 Mostly Cloudy BKN020 16.7 12.2 75% 76.73 1022.9
19 07:56 NW 13 16.09 Overcast OVC014 15.6 13.3 86% 76.68 1022.0
19 06:56 NW 20 16.09 Overcast OVC018 15.6 13.3 17.2 15 86% 76.61 1020.9
19 05:56 NW 15 16.09 Overcast OVC016 15 13.3 90% 76.5 1019.8
19 04:56 W 13 16.09 Overcast OVC020 15 13.9 93% 76.45 1018.9
19 03:56 W 13 16.09 Mostly Cloudy BKN020 15.6 13.9 90% 76.33 1017.4
19 02:56 W 11 16.09 Overcast OVC016 16.1 14.4 90% 76.28 1016.6
19 01:56 W 22 16.09 Overcast OVC010 16.7 15.6 93% 76.2 1015.6
19 00:56 W 22 16.09 Overcast BKN010 OVC047 17.2 16.7 28.9 17.2 97% 76.12 1014.7 0.2
18 23:56 W 26 16.09 Light Rain FEW018 BKN037 17.2 16.1 93% 76.05 1013.6 0.03
18 22:56 W 17 16.09 Light Rain SCT010 BKN014 OVC034 18.3 17.8 97% 76 1012.9 0.08
18 21:56 W 20 16.09 Light Rain FEW012 BKN027 OVC100 18.9 17.8 93% 75.79 1010.2 0.1 0.1
18 20:56 W 37 G 46 16.09 Overcast and Breezy FEW016 SCT022 OVC029 22.8 20 84% 75.62 0.0
18 19:56 W 44 G 50 16.09 Overcast and Windy FEW024 BKN040 OVC047 27.8 23.3 77% 31 75.46 0.0
18 18:57 S 30 G 41 16.09 Partly Cloudy SCT041 SCT050 28.3 23.9 28.9 27.2 77% 32 75.36 0.0
18 17:56 S 30 G 41 16.09 A Few Clouds FEW042 28.9 23.9 74% 33 75.34 0.0
18 16:56 S 28 G 33 16.09 Overcast FEW035 OVC080 28.3 23.3 74% 32 75.41 0.0
18 15:56 S 33 G 50 16.09 Overcast and Breezy OVC035 28.3 23.3 74% 32 75.39 0.0
18 14:56 S 37 G 50 16.09 Overcast and Breezy BKN032 OVC042 28.3 23.3 74% 32 75.36 0.0
18 13:56 S 28 G 52 16.09 Overcast OVC030 27.2 22.8 77% 30 75.39 0.0
18 12:56 S 33 G 57 16.09 Overcast and Breezy BKN030 OVC037 27.2 22.8 77% 30 75.34 0.0
Date Time (cdt) Wind (kph) Vis. (km) Weather Sky Cond. Air Dwpt Max. Min. Relative Humidity Wind Chill (°C) Heat Index (°C) altimeter (cm) sea level (mb) 1 hr 3 hr 6 hr
6 hour
Temperature (ºC) Pressure Precipitation (cm)